Regional Weather Roundup
Issued by NWS Little Rock, AR

Home | Current Version | Previous Version | Text Only | Print | Product List | Glossary On
Versions: 1 2 3 4 5 6 7 8 9 10 11 12 13 14 15 16 17 18 19 20 21 22 23 24 25 26 27
000
ASUS44 KLZK 271905
RWRLZK

WEATHER ROUNDUP FOR ARKANSAS
NATIONAL WEATHER SERVICE LITTLE ROCK AR
200 PM CDT WED JUL 27 2016

NOTE: "FAIR" INDICATES FEW OR NO CLOUDS BELOW 12,000 FEET WITH NO
SIGNIFICANT WEATHER AND/OR OBSTRUCTIONS TO VISIBILITY.

ARZ001-003-010-029-272000-
NORTHWEST ARKANSAS

CITY           SKY/WX    TMP DP  RH WIND       PRES   REMARKS
FAYETTEVILLE   CLOUDY    77  73  87 S8        29.99F
FORT SMITH     PTSUNNY   86  74  67 SE6       29.93F HX  94
HARRISON       PTSUNNY   87  70  56 SE6       29.98F HX  92
BENTONVILLE    CLOUDY    81  72  74 W7        30.01S
ROGERS         PTSUNNY   83  75  77 SE3       30.00S HX  90
SILOAM SPGS    PTSUNNY   79  64  61 SW3       30.01S
HIGHFILL       CLOUDY    81  76  84 W7        30.00R HX  87
SPRINGDALE     CLOUDY    82  75  78 SW8       30.01S HX  89
$$

ARZ004-005-016-272000-
NORTH CENTRAL ARKANSAS

CITY           SKY/WX    TMP DP  RH WIND       PRES   REMARKS
BATESVILLE     CLOUDY    93  72  49 NE3       29.91F HX 100
FLIPPIN        SUNNY     90  72  55 NE3       29.93F HX  96
MTN HOME       MOSUNNY   89  73  59 CALM      29.95F HX  97
$$

ARZ040-041-272000-
WEST CENTRAL ARKANSAS

CITY           SKY/WX    TMP DP  RH WIND       PRES   REMARKS
MENA           CLOUDY    75  73  94 W8        30.01F
MOUNT IDA      HVY RAIN  74  71  91 VRB5      29.97S VSB 1
$$

ARZ009-017-025-026-028-272000-
NORTHEAST ARKANSAS

CITY           SKY/WX    TMP DP  RH WIND       PRES   REMARKS
CORNING          N/A     91  77  62 NE9       29.92F HX 105
JONESBORO      MOSUNNY   91  78  65 NE13      29.90F HX 106
NEWPORT        SUNNY     94  77  57 NE8       29.90F HX 108
WALNUT RIDGE   SUNNY     93  75  55 NE7       29.90F HX 104
BLYTHEVILLE    MOSUNNY   91  76  61 E8        29.92F HX 103
NW BLYTHEVILLE PTSUNNY   91  75  59 SE6       29.92F HX 102
$$

ARZ022-023-033-042-044-272000-
CENTRAL ARKANSAS

CITY           SKY/WX    TMP DP  RH WIND       PRES   REMARKS
LITTLE ROCK    LGT RAIN  83  74  74 N20       29.92F HX  89
N LITTLE ROCK    N/A     77  73  88 N6        29.89F
JACKSONVILLE   CLOUDY    80  73  80 SW8       29.92F
SEARCY         CLOUDY    90  73  57 NW7       29.91F HX  98
HOT SPRINGS    CLOUDY    85  74  69 CALM      29.95F HX  92
RUSSELLVILLE   PTSUNNY   93  72  50 N6        29.91F HX 101
$$

ARZ036-272000-
EAST ARKANSAS

CITY           SKY/WX    TMP DP  RH WIND       PRES   REMARKS
WEST MEMPHIS   CLOUDY    83  79  88 CALM      29.90F HX  94
$$

ARZ050-053-066-070-073-272000-
SOUTHWEST ARKANSAS

CITY           SKY/WX    TMP DP  RH WIND       PRES   REMARKS
ARKADELPHIA    CLOUDY    79  76  90 S3        29.94F
CAMDEN         CLOUDY    81  73  78 CALM      29.93F HX  85
TEXARKANA      MOSUNNY   91  73  55 S7        29.92F HX  99
EL DORADO      PTSUNNY   85  72  65 VRB3      29.94F HX  91
DE QUEEN       TSTM      76  72  87 SE8       29.90F
$$

ARZ056-057-069-272000-
SOUTHEAST ARKANSAS

CITY           SKY/WX    TMP DP  RH WIND       PRES   REMARKS
PINE BLUFF     LGT RAIN  78  76  93 SW10      29.92F
STUTTGART      CLOUDY    75  70  83 SE9       29.95R THUNDER
MONTICELLO     CLOUDY    85  76  74 NW8       29.93F HX  94

$$






USA.gov is the U.S. government's official web portal to all federal, state and local government web resources and services.